Vorticity
nan nan nan nan nan nan nan nan nan nan nan nan nan nan nan nan nan nan nan nan nan nan nan nan nan nan nan nan nan nan nan nan nan nan nan nan nan nan nan nan nan nan nan nan nan nan nan nan nan nan nan nan nan nan nan nan nan nan nan nan nan nan nan nan nan nan nan nan nan nan nan nan nan nan nan nan nan nan nan nan nan nan nan nan nan nan nan nan nan nan nan nan nan nan nan nan nan nan nan nan nan nan nan
nan 6 6 7 7 8 9 8 7 5 5 6 6 6 6 6 5 4 4 4 4 4 5 5 5 5 4 4 3 3 4 4 3 3 3 3 4 4 4 6 8 12 15 16 13 9 7 6 6 6 6 6 6 5 4 3 5 7 9 9 10 13 12 3 5 4 4 4 4 4 4 4 4 4 4 5 5 5 5 5 5 5 5 5 6 6 6 6 6 6 6 6 6 6 6 6 7 7 6 6 6 6 nan
nan 5 6 7 8 9 9 7 6 5 5 5 5 5 5 5 5 5 4 4 3 3 4 4 4 4 4 4 4 3 3 4 3 3 3 3 4 4 4 6 8 12 15 14 11 8 3 6 6 5 4 5 6 6 5 5 5 6 7 9 9 11 14 4 4 4 5 5 5 5 5 5 5 5 5 5 5 6 5 5 5 6 6 6 6 6 6 6 6 6 6 6 6 6 6 6 6 6 6 6 6 6 nan
nan 6 6 7 7 8 8 7 6 5 5 5 5 5 5 5 6 6 5 4 4 4 4 4 4 4 4 4 4 4 4 4 3 3 3 4 4 4 4 5 8 11 13 12 9 6 0 3 5 5 3 4 5 5 5 5 6 6 7 7 8 7 8 5 5 5 5 5 5 5 5 5 5 5 6 6 6 6 6 6 6 6 7 7 6 6 6 6 6 6 6 5 5 5 5 5 6 6 6 6 6 7 nan
nan 6 6 6 7 8 8 7 6 5 5 5 5 5 5 6 6 6 6 5 5 5 5 4 4 4 4 4 4 4 4 4 4 4 4 4 4 3 3 5 7 10 12 11 9 6 5 2 3 4 4 4 4 4 4 4 5 6 7 6 7 4 3 5 5 5 5 6 6 5 5 5 6 6 6 6 6 6 6 6 6 6 6 6 6 6 6 5 5 5 5 5 5 5 5 5 6 6 6 7 7 8 nan
nan 6 6 6 7 7 7 7 6 6 5 5 5 5 5 6 6 6 6 6 6 6 5 5 5 5 5 4 4 5 4 4 4 4 4 4 3 3 3 4 7 9 11 10 9 7 7 3 3 5 5 5 5 5 4 4 5 6 6 5 6 5 2 5 5 5 6 6 6 6 5 6 6 6 6 7 6 6 6 6 6 6 6 6 5 5 4 4 4 4 5 5 5 6 6 6 6 7 7 8 8 8 nan
nan 5 5 6 6 7 7 6 6 6 5 5 5 5 5 5 5 6 6 6 6 6 5 5 5 5 5 5 4 4 5 5 5 4 4 4 3 3 3 4 6 9 11 10 8 7 7 6 6 6 5 5 4 5 4 4 5 6 6 4 3 3 4 6 6 6 6 6 6 6 6 6 6 6 7 6 6 6 6 6 5 5 5 5 4 4 3 4 4 5 6 6 6 6 7 7 7 7 7 7 7 7 nan
nan 5 5 5 6 6 6 6 5 5 5 5 5 5 5 5 5 5 5 5 5 5 5 5 5 5 5 5 5 4 5 5 5 5 4 3 3 3 3 4 6 8 10 10 8 8 8 7 6 5 5 5 4 5 5 5 5 6 7 5 0 0 4 6 6 6 7 7 7 6 6 6 6 6 6 6 6 5 5 5 5 5 4 4 4 4 4 5 6 6 7 7 7 7 7 7 6 7 7 6 6 6 nan
nan 5 5 5 5 5 5 5 5 5 5 5 5 5 5 5 5 5 5 5 5 5 5 5 5 5 5 5 5 5 5 5 5 5 4 3 3 2 3 4 5 7 10 10 9 7 6 5 5 5 5 5 5 5 6 6 5 6 7 6 3 3 4 6 7 7 7 7 7 6 6 6 6 6 6 5 5 5 5 4 5 5 4 4 4 5 6 7 7 7 7 7 7 7 7 6 6 7 7 7 7 7 nan
nan 5 5 5 5 5 5 5 5 5 5 5 5 5 5 5 5 5 5 5 5 5 5 5 5 5 5 5 5 6 6 6 6 5 4 3 3 2 2 3 4 7 9 10 9 7 5 5 5 6 5 5 5 4 5 6 5 6 5 6 6 6 6 7 7 7 7 7 7 6 6 6 6 6 5 5 5 4 5 5 5 5 5 5 6 7 8 7 7 7 7 6 6 6 6 7 7 7 7 7 8 8 nan
nan 5 5 5 5 5 5 5 5 5 5 5 6 6 6 6 5 5 5 5 5 5 5 5 5 6 6 6 6 6 7 6 6 5 4 3 2 2 2 2 4 7 10 11 9 6 3 5 5 6 6 5 5 5 5 6 6 7 5 6 6 6 7 7 7 7 7 7 6 6 5 5 5 5 5 5 5 5 5 5 6 6 6 6 7 7 8 7 7 6 6 6 6 7 7 7 7 7 7 8 8 8 nan
nan 5 5 4 5 5 5 5 5 5 5 6 6 6 6 6 6 6 5 5 5 5 5 5 6 6 7 7 7 7 7 7 6 5 4 3 2 2 1 2 4 7 10 11 8 4 1 3 5 6 6 5 5 5 6 6 6 7 5 4 6 6 7 7 7 7 6 6 5 5 5 5 5 5 5 5 5 5 5 6 6 6 7 7 7 7 7 7 7 6 6 6 7 7 7 7 7 7 7 7 7 7 nan
nan 5 4 4 5 6 5 5 5 5 5 6 6 6 6 7 6 6 6 6 6 6 6 6 6 7 7 7 8 8 7 7 6 5 3 2 2 1 1 2 4 7 10 10 5 1 -0 3 5 6 6 5 5 6 6 7 7 7 5 3 6 7 7 8 7 6 5 5 4 4 4 4 5 5 5 5 5 5 5 6 6 6 7 7 7 7 7 7 6 6 7 7 7 7 7 7 7 7 7 7 7 7 nan
nan 4 4 5 6 6 5 5 5 5 5 5 6 6 6 7 7 7 6 6 6 6 5 5 5 5 6 6 6 6 6 6 5 3 2 1 1 1 1 3 5 7 10 7 4 2 3 5 6 5 6 6 5 5 7 8 7 5 7 4 6 7 8 8 7 6 4 4 4 4 5 5 5 5 5 5 5 5 6 6 6 7 7 8 8 8 7 7 7 7 7 7 7 7 7 7 7 7 7 7 7 7 nan
nan 4 5 6 7 6 5 5 4 4 5 5 5 6 6 7 7 7 7 6 6 5 4 4 3 3 3 3 4 3 3 4 3 2 1 1 1 1 1 4 6 7 9 7 5 6 7 7 7 6 6 7 6 5 6 7 7 5 7 7 7 7 7 7 6 5 4 4 4 5 5 5 5 5 5 5 5 5 6 6 7 7 8 8 8 8 8 7 7 7 7 7 7 7 7 7 7 7 7 7 7 7 nan
nan 6 6 7 6 5 4 4 4 4 4 4 5 5 6 7 7 7 7 6 5 4 3 2 2 1 1 1 1 0 -1 1 -0 0 1 1 1 2 3 5 7 8 7 8 7 8 8 8 7 6 7 7 7 7 7 6 6 5 6 8 7 7 7 6 5 4 4 4 5 6 6 5 5 4 5 5 6 6 6 7 7 8 8 8 8 8 8 7 7 7 7 7 7 7 7 7 7 7 7 7 7 7 nan
nan 6 6 7 6 5 4 4 4 4 4 4 4 5 6 7 7 7 6 6 5 4 3 2 2 1 0 0 0 -1 -1 -0 0 1 2 3 3 3 5 6 7 8 7 8 8 8 8 7 7 6 6 7 7 7 7 6 4 5 5 8 7 7 6 5 4 3 4 5 6 6 5 5 5 5 5 6 6 6 7 7 8 8 8 8 7 7 7 7 7 7 7 7 7 7 7 7 7 7 7 7 7 7 nan
nan 7 7 6 5 4 4 4 4 4 4 4 4 4 5 6 6 6 6 5 4 4 3 3 2 2 1 1 1 2 3 4 4 4 3 3 4 6 7 7 7 7 8 8 8 9 8 7 7 6 6 6 6 6 7 6 4 5 6 7 7 7 6 5 4 4 5 6 5 5 5 5 5 5 6 6 6 7 7 8 8 8 8 7 7 7 6 6 6 6 7 7 7 8 8 7 7 7 7 7 7 7 nan
nan 6 6 5 4 4 4 4 4 4 4 3 4 4 5 4 4 4 4 4 4 4 3 2 3 3 3 2 2 4 6 7 7 6 5 4 5 7 8 8 7 7 8 8 8 8 8 7 7 7 6 5 6 6 6 6 5 6 7 8 9 9 8 6 5 5 5 6 5 5 5 5 5 6 6 6 7 7 7 8 8 8 7 7 7 7 6 6 6 7 7 7 8 8 8 7 7 7 7 7 7 7 nan
nan 4 4 3 4 4 3 3 3 3 3 3 3 4 4 2 2 3 4 4 3 3 3 3 3 4 5 4 4 5 7 7 7 7 6 6 6 7 7 7 7 7 8 8 8 7 7 6 6 6 6 5 5 6 6 5 5 7 9 11 12 12 11 8 6 6 5 5 5 5 5 5 6 6 7 7 7 7 8 8 8 8 7 7 7 6 6 7 7 7 7 7 8 8 7 7 7 7 7 7 7 7 nan
nan 4 4 4 4 3 2 2 3 4 5 3 0 2 2 3 4 5 6 4 4 4 4 3 3 5 7 6 6 6 7 7 7 7 6 6 7 7 7 7 7 7 9 9 8 7 6 6 6 6 6 6 6 7 6 8 6 7 10 12 13 14 12 9 7 6 6 6 5 5 5 6 6 6 7 7 7 8 8 8 8 8 7 7 7 7 7 7 7 7 8 8 8 7 7 7 7 7 7 7 7 7 nan
nan 5 5 5 5 3 3 4 5 6 7 5 1 2 3 5 6 6 6 6 6 5 5 5 5 6 8 8 7 7 7 8 7 7 6 6 7 7 7 7 7 8 9 9 8 7 6 6 6 6 6 7 7 7 6 8 8 8 10 11 13 13 11 9 8 7 6 6 6 6 6 6 7 7 7 7 8 8 8 8 8 8 8 7 7 7 7 7 7 8 8 8 7 7 7 7 6 6 7 7 7 7 nan
nan 6 5 5 5 5 5 6 7 7 7 7 5 4 5 6 6 6 6 7 7 6 7 6 6 8 9 8 8 7 8 8 8 7 7 6 7 7 7 7 7 8 9 10 8 7 6 6 6 6 7 7 7 7 7 7 8 8 8 10 11 10 9 8 7 6 6 6 6 6 6 7 7 7 7 7 8 8 8 8 8 8 8 7 7 7 7 7 7 8 8 8 7 7 6 6 6 6 7 7 7 7 nan
nan 6 5 5 5 5 6 7 7 6 6 7 7 6 6 6 7 7 6 6 7 7 7 7 7 8 8 8 8 8 9 9 9 9 8 7 7 7 7 7 7 8 10 10 8 7 6 6 6 7 7 7 7 8 8 7 7 7 7 7 8 8 8 7 6 6 6 6 6 6 6 7 7 7 7 8 8 8 8 8 8 8 7 7 7 7 7 7 7 8 8 7 7 6 6 6 6 7 7 7 7 7 nan
nan 6 5 5 6 6 6 7 7 6 6 7 7 7 6 5 6 7 7 7 7 7 7 7 7 7 8 8 8 8 9 8 8 9 9 9 8 8 7 7 8 9 11 10 8 6 6 6 7 7 7 7 7 8 8 8 7 6 6 6 7 7 7 7 6 6 6 6 6 6 6 6 7 7 7 8 8 8 8 8 8 8 7 7 7 7 7 7 7 8 8 7 6 6 6 6 6 7 7 7 7 7 nan
nan 6 5 5 6 6 7 7 7 6 6 6 7 7 6 5 6 7 8 7 7 8 7 7 7 7 8 8 8 8 8 8 8 8 9 9 9 8 8 8 8 10 11 10 8 6 6 6 7 7 7 7 8 7 7 7 6 6 5 5 5 6 6 6 7 6 7 7 7 7 7 7 7 7 7 7 8 8 8 8 8 8 7 7 7 7 7 7 8 8 7 7 6 6 6 6 7 7 7 7 7 7 nan
nan 6 6 6 6 6 6 7 7 7 7 7 8 8 7 6 6 7 8 8 8 8 7 7 7 8 8 8 8 8 7 8 8 9 9 8 8 8 8 8 8 10 10 9 8 7 6 7 7 7 7 7 7 7 6 5 5 5 5 5 5 5 5 6 6 6 7 7 7 7 7 7 7 6 7 7 7 8 8 8 8 8 7 7 7 7 7 7 8 8 7 7 6 6 6 7 7 7 7 7 7 7 nan
nan 6 6 6 6 7 6 6 7 7 7 8 8 8 8 8 7 7 7 8 8 8 7 7 7 7 8 7 7 7 7 8 8 9 9 8 8 8 8 8 9 10 9 9 8 7 7 7 7 7 7 7 7 7 7 3 4 5 5 5 5 5 5 5 5 6 6 7 7 7 7 7 7 6 6 7 7 7 7 8 8 8 7 7 7 7 7 7 8 7 7 6 6 6 6 7 7 7 7 7 7 7 nan
nan 5 7 7 7 7 6 6 7 8 9 9 8 8 8 9 9 8 7 8 7 8 7 7 7 7 7 7 7 7 7 8 8 8 9 9 8 8 8 9 9 11 10 8 8 7 7 7 8 7 7 7 7 7 8 4 3 5 5 5 5 5 5 5 5 5 6 7 7 7 7 6 6 6 6 6 6 7 7 7 7 7 7 7 7 7 7 7 7 7 7 6 6 6 6 7 7 7 7 7 7 7 nan
nan 6 7 8 8 7 6 6 7 8 10 9 8 7 8 9 10 9 8 7 7 7 7 7 7 7 7 8 7 7 8 8 7 7 8 9 9 9 8 9 11 12 10 7 6 6 7 7 7 6 6 6 6 7 8 6 4 4 6 5 5 5 4 4 5 5 6 6 7 7 7 6 6 6 6 6 6 6 7 7 7 7 7 7 7 7 7 7 7 7 6 6 6 6 6 7 7 7 7 7 7 7 nan
nan 7 7 8 8 7 8 7 7 7 8 9 9 8 8 9 10 9 8 6 6 6 7 7 7 7 7 7 7 7 8 7 7 7 7 8 8 9 8 10 11 11 8 6 6 7 7 7 5 5 5 6 6 6 7 7 4 3 4 5 5 4 4 4 4 5 6 6 6 6 6 6 6 6 5 5 6 6 6 7 7 7 7 7 7 7 7 7 7 7 7 6 6 6 6 7 7 7 7 7 7 7 nan
nan 8 8 8 8 8 8 8 6 6 7 9 9 9 9 9 9 9 8 7 7 7 7 7 6 7 7 7 7 7 8 8 8 7 6 7 8 8 8 9 10 10 9 7 7 7 7 7 7 7 6 6 6 6 7 7 5 3 2 4 4 4 4 4 4 5 5 6 6 6 6 6 6 5 5 5 6 6 6 7 7 7 7 7 6 6 7 7 7 7 6 6 6 6 6 7 7 7 7 7 7 7 nan
nan 8 8 8 8 8 8 7 6 6 7 9 9 9 9 9 9 9 9 8 8 9 9 9 8 8 8 7 7 8 8 8 8 7 7 7 8 8 8 9 10 10 10 9 8 7 7 8 8 7 6 6 6 6 7 7 6 5 1 1 3 4 4 4 4 5 5 6 6 6 6 5 5 5 5 5 5 6 6 7 7 7 7 7 6 6 6 6 7 7 6 6 6 6 6 7 7 7 7 7 7 7 nan
nan 8 9 8 8 8 8 7 6 6 7 8 9 9 9 8 8 9 9 8 8 8 9 10 10 9 9 8 7 8 8 8 8 8 8 7 8 8 9 9 10 11 12 9 8 7 7 8 8 7 6 6 6 6 6 7 7 6 4 5 3 3 4 4 4 4 5 5 5 5 5 5 5 5 5 5 5 6 6 7 7 7 7 6 6 6 6 6 6 7 6 6 6 6 6 7 7 7 7 7 7 7 nan
nan 8 9 8 8 8 7 6 6 6 7 8 8 9 9 8 7 7 8 7 6 6 7 9 9 8 8 8 8 7 7 8 9 8 8 7 8 8 9 9 10 12 12 10 8 6 7 7 7 7 7 6 6 5 6 6 7 7 8 6 2 1 1 2 2 3 4 5 5 5 5 5 5 5 5 5 6 6 6 7 8 8 7 7 6 5 6 6 6 6 6 6 6 6 6 6 6 6 6 6 7 7 nan
nan 8 8 8 7 7 6 5 6 7 7 8 8 9 9 7 7 7 6 6 6 5 5 7 8 7 8 8 7 6 7 8 8 8 8 8 8 8 8 9 10 12 12 9 7 7 8 7 7 8 7 6 5 5 5 6 7 7 7 3 1 -1 -2 -2 -1 2 4 4 5 5 5 5 5 5 5 5 6 6 7 7 8 8 8 7 6 6 6 6 6 6 6 6 6 6 6 6 6 6 6 6 7 6 nan
nan 8 8 8 7 7 5 5 7 8 8 7 8 8 8 6 6 7 7 7 6 5 6 6 7 7 8 9 8 7 7 8 8 8 8 9 9 9 8 8 9 12 11 8 7 8 8 7 7 7 7 6 5 5 5 6 7 7 7 5 3 1 1 -0 -0 -0 1 3 5 5 5 5 5 5 5 5 6 6 7 7 8 8 8 7 6 6 6 5 6 6 6 6 5 5 6 6 6 6 6 6 6 6 nan
nan 8 8 8 7 7 6 5 7 8 8 8 7 8 7 7 6 8 8 7 6 6 7 6 6 7 8 9 9 8 8 8 8 8 7 8 9 9 9 9 9 10 10 10 9 9 9 7 7 7 7 6 6 5 5 7 7 7 6 6 6 5 6 6 3 2 -1 -0 2 4 5 5 5 5 5 5 5 6 6 7 8 8 8 8 7 7 6 6 6 6 6 6 5 5 5 5 5 6 6 6 6 6 nan
nan 8 8 8 7 7 6 6 7 7 8 8 7 7 8 8 7 7 8 8 7 7 7 7 6 5 6 8 8 8 8 8 8 8 7 7 7 8 9 9 9 9 11 11 10 9 9 8 8 8 7 6 6 6 6 8 8 7 6 6 6 6 7 8 7 6 2 -1 -1 1 5 5 5 5 5 5 5 5 5 6 7 8 8 8 8 7 6 6 6 6 6 6 6 5 5 5 5 5 6 6 6 6 nan
nan 7 8 8 7 6 7 7 7 6 7 7 6 6 9 10 8 6 7 8 7 7 8 8 6 5 5 7 8 8 8 8 8 8 7 7 7 7 8 8 9 9 12 11 10 9 9 9 9 8 6 6 6 7 8 8 8 7 7 7 7 7 7 8 8 8 6 4 1 -0 1 4 5 4 4 4 4 4 4 5 6 8 8 8 8 7 7 7 6 6 6 6 6 6 5 5 5 5 5 6 6 6 nan
nan 7 8 8 7 7 8 8 6 6 6 6 6 6 8 9 9 7 7 7 7 7 8 9 9 7 6 6 7 8 8 8 8 8 8 7 7 7 8 8 9 10 11 11 9 9 9 9 8 7 6 7 8 8 9 9 8 7 7 7 7 8 8 8 7 6 7 7 6 2 -2 3 4 4 4 4 3 3 4 5 6 7 8 8 8 8 7 7 7 7 7 6 6 6 5 5 5 5 5 5 6 6 nan
nan 7 8 8 8 8 9 8 6 5 6 6 6 6 7 8 9 9 8 6 7 7 8 8 10 9 9 7 7 7 8 8 8 8 8 8 9 8 8 8 9 10 11 10 9 9 9 8 8 7 8 8 9 9 9 8 8 7 8 7 7 8 8 6 5 6 7 8 8 5 1 -0 2 4 4 3 3 3 3 4 5 6 7 8 8 8 8 7 7 7 7 7 7 6 6 5 5 5 5 5 5 6 nan
nan 8 8 8 8 9 9 9 6 6 6 6 6 6 6 7 9 10 9 8 8 7 6 8 9 10 10 8 7 7 8 8 8 8 8 8 9 9 9 8 9 9 10 10 9 9 9 9 9 9 8 7 9 10 9 8 7 7 6 6 6 7 7 6 6 7 8 8 8 7 5 -0 0 2 4 3 2 2 2 3 4 5 7 7 8 8 8 7 7 7 7 7 7 6 6 6 5 5 5 5 5 5 nan
nan 8 8 9 9 10 10 8 6 6 6 6 6 6 6 7 8 9 9 9 9 7 6 7 8 10 9 8 8 7 7 7 8 8 8 8 8 8 8 9 9 9 10 10 10 10 10 11 11 9 7 7 9 8 8 8 6 5 5 6 6 7 7 7 7 8 8 8 7 7 8 4 1 -1 0 1 0 0 1 2 3 5 6 7 7 8 8 7 7 7 7 7 7 6 6 6 6 6 6 5 5 5 nan
nan 9 9 10 11 11 10 8 6 6 6 6 6 6 6 7 8 8 8 9 9 9 8 7 8 9 9 10 9 8 7 8 8 8 8 8 8 8 8 9 9 9 9 9 10 10 11 12 11 8 6 7 8 8 9 8 6 5 6 7 7 8 8 7 8 8 7 7 7 7 8 7 4 1 -1 -1 -1 -3 -3 -0 2 4 5 6 7 7 7 7 7 7 7 7 7 6 6 6 6 6 6 6 5 5 nan
nan 8 9 10 11 11 10 7 6 6 7 7 6 5 4 6 7 7 7 8 9 10 9 8 7 7 8 10 9 9 9 9 9 8 7 7 7 8 9 10 9 9 8 8 9 11 12 12 10 8 8 8 8 9 10 9 5 4 6 7 7 8 8 7 7 6 6 6 7 7 7 7 6 5 4 3 2 -1 -3 -3 -0 2 4 5 6 6 7 7 7 7 7 7 6 6 6 7 7 6 6 6 6 5 nan
nan 7 9 10 11 11 10 8 6 7 7 7 6 5 4 6 7 7 6 7 8 8 8 8 7 5 6 7 8 8 9 9 9 7 7 7 7 6 8 10 10 9 8 8 9 11 13 12 10 9 9 8 8 9 10 8 5 5 6 7 7 8 7 6 6 6 5 6 7 8 7 6 6 6 7 6 6 4 1 -3 -3 -0 2 3 4 5 6 7 7 7 7 6 6 6 6 7 7 7 7 6 6 6 nan
nan 7 9 11 11 10 10 8 7 7 8 7 6 6 5 7 8 7 7 8 8 7 8 9 8 6 5 4 5 7 9 8 8 6 7 7 8 7 8 9 9 8 7 8 9 12 13 12 11 9 9 9 9 9 9 8 6 6 7 8 7 7 7 6 5 5 5 7 8 8 7 7 6 6 7 7 7 7 5 1 -2 -3 -1 1 2 3 4 5 6 6 6 6 6 6 6 7 7 7 7 6 6 6 nan
nan 5 8 10 11 10 10 8 7 7 7 7 7 8 9 9 8 7 7 8 9 8 8 8 10 10 8 4 4 5 8 8 8 7 7 8 8 8 9 9 8 8 7 7 9 11 12 11 11 9 9 10 10 9 9 8 8 7 8 8 7 7 6 6 5 4 6 8 8 8 7 7 7 7 7 7 7 7 7 6 3 -0 -3 -2 0 2 2 3 4 4 5 6 6 6 6 7 7 7 7 6 6 6 nan
nan 5 7 9 10 10 9 9 7 7 7 7 8 9 11 11 10 8 7 7 8 8 8 8 9 12 12 8 6 5 7 8 8 7 6 8 9 8 8 8 7 8 9 8 8 9 10 9 9 8 9 10 11 11 10 10 9 8 8 8 8 7 6 6 5 5 7 8 7 7 7 7 7 7 7 7 7 7 8 8 7 5 2 -0 0 2 0 -2 0 3 4 5 6 6 7 7 7 7 7 6 6 6 nan
nan 6 7 8 9 9 10 9 7 7 8 7 6 8 9 10 9 8 8 7 6 7 7 6 7 9 12 11 8 7 7 8 8 7 7 8 10 11 9 7 7 7 9 9 8 8 8 6 7 7 8 9 11 11 11 11 10 9 8 7 8 7 7 6 6 6 7 7 6 6 7 7 7 7 7 7 7 7 8 8 8 7 7 6 5 4 2 -4 -8 -3 3 5 6 6 7 7 7 7 7 6 6 6 nan
nan 7 7 7 7 8 9 9 8 8 7 4 4 4 5 7 7 7 8 8 7 6 6 6 6 7 8 10 9 10 9 10 10 10 9 7 7 10 9 8 8 7 8 8 9 7 5 6 6 5 6 8 10 11 12 12 11 9 8 8 8 8 7 6 6 7 7 6 5 6 7 7 7 7 8 8 8 7 7 7 8 8 8 7 6 6 2 -3 -6 -5 1 5 6 6 7 7 7 7 7 6 6 6 nan
nan 6 6 6 7 8 9 9 8 7 7 6 4 3 4 5 5 6 8 8 7 7 7 8 7 6 6 8 9 9 9 10 10 9 8 7 6 6 7 10 9 9 7 8 8 6 4 5 5 5 4 7 9 10 12 12 11 9 8 8 8 7 7 7 7 8 8 6 6 6 7 7 7 8 8 8 8 7 7 7 7 7 8 7 7 7 3 -5 -8 -4 2 4 4 6 7 7 7 7 7 7 7 7 nan
nan 7 5 4 6 7 9 9 8 7 7 7 6 6 6 4 4 5 7 8 8 7 8 8 8 8 7 6 7 7 8 9 9 10 8 7 7 5 7 10 11 11 8 8 7 7 5 6 7 8 5 6 8 8 10 11 10 10 10 9 8 8 7 7 7 8 8 7 6 7 7 7 7 8 8 8 8 8 8 7 7 7 7 8 8 7 4 -3 -6 -1 3 2 2 4 5 5 7 7 7 7 7 7 nan
nan 7 4 4 6 8 9 9 7 7 6 7 8 8 7 6 5 7 8 9 9 8 7 7 7 6 6 7 7 7 7 6 7 9 10 9 9 7 7 7 6 8 10 9 9 8 7 8 10 10 7 7 8 8 6 7 9 12 12 10 9 8 7 6 7 7 7 6 7 8 8 8 8 8 8 8 8 8 7 7 8 8 8 8 7 7 3 2 5 8 7 2 -1 -0 2 4 6 7 7 8 8 8 nan
nan 5 5 6 7 7 8 8 8 7 6 7 7 8 7 8 8 8 9 11 10 8 5 6 6 4 5 9 9 8 7 6 6 7 9 10 10 10 11 7 4 4 8 8 10 10 9 9 9 10 9 7 8 8 5 5 8 12 11 9 9 10 9 7 7 7 6 6 7 8 9 10 9 8 8 8 8 8 7 8 8 8 8 8 8 8 7 8 9 8 8 5 1 -2 -2 3 6 7 7 8 8 8 nan
nan 7 7 7 8 6 6 7 7 6 6 7 8 8 8 8 8 8 8 9 9 7 6 7 7 5 5 9 10 9 6 6 5 7 8 8 9 11 13 10 9 7 7 8 10 10 11 11 9 9 9 8 8 7 7 7 8 9 9 7 8 11 11 9 8 7 7 7 7 7 8 9 9 9 8 8 8 8 8 8 8 8 8 8 8 8 8 7 6 6 7 6 4 -6 -7 3 6 7 7 8 8 8 nan
nan 8 8 7 8 7 5 5 7 7 7 7 7 8 8 8 7 7 8 8 9 8 8 6 7 6 6 7 9 10 8 6 4 5 7 9 8 9 11 11 11 12 11 11 11 10 10 8 9 7 8 8 8 8 7 7 8 8 7 7 8 9 11 11 10 9 8 8 7 7 7 8 8 9 9 8 8 8 8 8 8 8 8 8 9 8 6 4 4 5 2 -1 -3 -8 -3 4 7 7 7 8 8 8 nan
nan 7 8 8 8 7 5 5 6 7 8 8 7 7 9 8 7 7 8 9 11 10 8 5 7 8 7 6 7 9 9 7 5 5 7 9 8 7 8 9 10 11 12 13 13 13 10 7 8 8 8 7 7 7 7 7 7 7 6 6 8 9 10 11 10 10 9 8 7 7 7 7 8 8 8 8 8 8 8 8 8 8 8 9 8 7 5 4 4 3 -1 -3 -3 -2 2 6 7 7 8 8 7 7 nan
nan 6 7 8 8 7 6 6 7 6 7 8 7 7 8 8 7 7 7 9 11 12 9 6 6 8 9 8 6 7 9 8 6 6 7 8 8 8 8 8 8 9 9 9 11 12 12 11 10 9 8 8 7 6 5 7 8 8 7 7 8 9 10 10 10 10 9 8 8 9 8 6 7 7 8 8 8 8 8 8 9 9 9 8 8 7 7 7 6 5 5 3 -0 -2 2 6 7 7 8 8 7 7 nan
nan nan nan nan nan nan nan nan nan nan nan nan nan nan nan nan nan nan nan nan nan nan nan nan nan nan nan nan nan nan nan nan nan nan nan nan nan nan nan nan nan nan nan nan nan nan nan nan nan nan nan nan nan nan nan nan nan nan nan nan nan nan nan nan nan nan nan nan nan nan nan nan nan nan nan nan nan nan nan nan nan nan nan nan nan nan nan nan nan nan nan nan nan nan nan nan nan nan nan nan nan nan nan
CAPE
51 30 13 1 nan nan nan nan 5 5 22 28 26 26 25 20 20 20 19 18 18 14 8 1 nan nan nan nan nan nan nan nan nan nan nan nan nan nan nan 1 1 2 0 nan nan nan nan nan nan nan nan nan nan nan nan nan nan nan nan nan nan nan nan 23 24 24 25 21 14 14 8 5 4 4 2 1 1 1 2 0 0 2 2 4 6 6 9 14 18 18 23 25 24 24 29 30 30 33 33 39 39 46 48
46 24 8 nan nan nan nan 1 9 9 22 24 22 22 19 14 14 12 12 12 12 10 7 2 nan nan nan nan nan nan nan nan nan nan nan nan nan nan nan nan nan nan nan nan nan nan nan nan nan nan nan nan nan nan nan nan nan nan nan nan nan nan nan 14 18 18 18 18 14 14 8 3 2 2 1 1 1 3 4 3 3 3 4 6 8 8 12 15 20 20 22 21 23 23 29 29 29 35 34 39 39 42 47
37 17 3 nan nan nan nan 1 10 10 18 20 16 16 13 8 8 6 6 7 7 6 4 1 nan nan nan nan nan nan nan nan nan nan nan nan nan nan nan nan nan nan nan nan nan nan nan nan nan nan nan nan nan nan nan nan nan nan nan nan nan nan nan 12 11 11 14 15 12 12 9 4 3 3 1 3 3 5 6 4 4 4 6 8 10 10 12 15 18 18 20 19 21 21 26 29 29 34 37 42 42 46 52
28 12 1 nan nan nan 1 3 9 9 14 14 12 12 7 5 5 3 2 2 2 2 1 0 nan nan nan nan nan nan nan nan nan nan nan nan nan nan nan nan nan nan nan nan nan nan nan nan nan nan nan nan nan nan nan nan nan nan nan nan nan nan nan 4 6 6 13 11 10 10 9 5 3 3 4 6 6 6 7 4 4 3 5 7 10 10 12 13 13 13 18 23 26 26 31 37 37 42 45 49 49 60 66
23 8 nan nan 0 0 2 5 8 8 9 10 7 7 5 3 3 2 0 nan nan nan nan nan nan nan nan nan nan nan nan nan nan nan nan nan nan nan nan nan nan nan nan nan nan nan nan nan nan nan nan nan nan nan nan nan nan nan nan nan nan nan nan 1 6 6 9 10 8 8 8 5 5 5 5 5 5 7 6 2 2 0 3 8 12 12 15 15 18 18 25 29 34 34 41 49 49 55 65 67 67 78 92
19 4 nan 0 1 1 4 6 4 4 4 5 4 4 3 2 2 0 nan nan nan nan nan nan nan nan nan nan nan nan nan nan nan nan nan nan nan nan nan nan nan nan nan nan nan nan nan nan nan nan nan nan nan nan nan nan nan nan nan nan nan nan nan 0 4 4 8 10 10 10 7 6 4 4 6 6 6 7 4 1 1 1 4 11 17 17 21 24 29 29 35 41 47 47 55 63 63 73 82 88 88 98 106
14 2 nan nan 1 1 2 2 3 3 3 3 2 2 1 0 0 nan nan nan nan nan nan nan nan nan nan nan nan nan nan nan nan nan nan nan nan nan nan nan nan nan nan nan nan nan nan nan nan nan nan nan nan nan nan nan nan nan nan nan nan nan nan nan 2 2 8 8 10 10 7 5 4 4 4 4 4 6 4 3 3 5 11 17 24 24 31 35 40 40 45 53 60 60 66 75 75 83 88 95 95 94 93
12 2 nan nan nan nan nan 1 1 1 1 0 0 0 nan nan nan nan nan nan nan nan nan nan nan nan nan nan nan nan nan nan nan nan nan nan nan nan nan nan nan nan nan nan nan nan nan nan nan nan nan nan nan nan nan nan nan nan nan nan nan nan nan nan 1 1 8 10 10 10 7 4 4 4 3 4 4 8 10 11 11 15 21 27 35 35 39 45 47 47 55 63 63 63 69 73 73 74 79 82 82 88 79
9 2 nan nan nan nan nan nan nan nan nan nan nan nan nan nan nan nan nan nan nan nan nan nan nan nan nan nan nan nan nan nan nan nan nan nan nan nan nan nan nan nan nan nan nan nan nan nan nan nan nan nan nan nan nan nan nan nan nan nan nan nan nan nan 1 1 9 11 9 9 5 5 5 5 7 10 10 12 21 25 25 27 31 35 41 41 46 49 54 54 61 61 60 60 60 63 63 61 69 69 69 65 62
6 3 0 nan nan nan nan nan nan nan nan nan nan nan nan nan nan nan nan nan nan nan nan nan nan nan nan nan nan nan nan nan nan nan nan nan nan nan nan nan nan nan nan nan nan nan nan nan nan nan nan nan nan nan nan nan nan nan nan nan nan nan nan nan 2 2 10 11 8 8 4 4 9 9 17 20 20 23 30 36 36 35 38 39 44 44 49 51 55 55 55 54 51 51 54 55 55 54 58 61 61 58 56
4 2 0 0 nan nan nan nan nan nan nan nan nan nan nan nan nan nan nan nan nan nan nan nan nan nan nan nan nan nan nan nan nan nan nan nan nan nan nan nan nan nan nan nan nan nan nan nan nan nan nan nan nan nan nan nan nan nan nan nan nan nan nan nan 3 3 8 10 7 7 7 9 19 19 29 31 31 33 36 38 38 38 41 43 46 46 48 49 51 51 50 49 49 49 47 46 46 49 52 53 53 51 47
2 1 0 0 nan nan nan nan nan nan nan nan nan nan nan nan nan nan nan nan nan nan nan nan nan nan nan nan nan nan nan nan nan nan nan nan nan nan nan nan nan nan nan nan nan nan nan nan nan nan nan nan nan nan nan nan nan nan nan nan nan nan nan 0 5 5 6 9 10 10 15 22 33 33 39 41 41 40 38 38 38 38 43 47 48 48 48 47 46 46 45 44 43 43 45 44 44 44 45 44 44 41 38
1 0 0 nan nan nan nan nan nan nan nan nan nan nan nan nan nan nan nan nan nan nan nan nan nan nan nan nan nan nan nan nan nan nan nan nan nan nan nan nan nan nan nan nan nan nan nan nan nan nan nan nan nan nan nan nan nan nan nan nan nan nan nan 0 6 6 7 14 20 20 29 38 43 43 46 43 43 39 38 37 37 39 44 48 51 51 50 45 45 45 40 42 40 40 40 38 38 39 37 35 35 30 26
1 1 0 nan nan nan nan nan nan nan nan nan nan nan nan nan nan nan nan nan nan nan nan nan nan nan nan nan nan nan nan nan nan nan nan nan nan nan nan nan nan nan nan nan nan nan nan nan nan nan nan nan nan nan nan nan nan nan nan nan nan nan nan 0 7 7 11 23 36 36 44 45 45 45 45 43 43 40 38 40 40 41 44 49 49 49 48 44 40 40 39 37 35 35 32 31 31 29 24 24 24 21 19
1 0 nan nan nan nan nan nan nan nan nan nan nan nan nan nan nan nan nan nan nan nan nan nan nan nan nan nan nan nan nan nan nan nan nan nan nan nan nan nan nan nan nan nan nan nan nan nan nan nan nan nan nan nan nan nan nan nan nan nan nan nan nan 2 11 11 21 37 49 49 51 49 44 44 40 40 40 39 39 41 41 42 44 47 45 45 42 40 37 37 34 29 24 24 23 20 20 19 17 16 16 16 15
1 nan 0 nan nan nan nan nan nan nan nan nan nan nan nan nan nan nan nan nan nan nan nan nan nan nan nan nan nan nan nan nan nan nan nan nan nan nan nan nan nan nan nan nan nan nan nan nan nan nan nan nan nan nan nan nan nan nan nan nan nan nan nan 6 19 19 34 53 57 57 54 46 40 40 38 40 40 43 42 41 41 41 43 44 41 41 35 33 29 29 24 18 15 15 13 13 13 13 13 13 13 14 15
1 nan nan nan nan nan nan nan nan nan nan nan nan nan nan nan nan nan nan nan nan nan nan nan nan nan nan nan nan nan nan nan nan nan nan nan nan nan nan nan nan nan nan nan nan nan nan nan nan nan nan nan nan nan nan nan nan nan nan nan nan nan 1 13 31 31 48 62 60 60 54 45 39 39 42 44 44 43 42 42 42 38 39 38 32 32 25 20 18 18 14 11 9 9 9 10 10 10 12 13 13 15 17
nan nan nan nan nan nan nan nan nan nan nan nan nan nan nan nan nan nan nan nan nan nan nan nan nan nan nan nan nan nan nan nan nan nan nan nan nan nan nan nan nan nan nan nan nan nan nan nan nan nan nan nan nan nan nan nan nan nan nan nan nan nan 7 19 45 45 59 65 63 63 57 45 42 42 44 43 43 42 38 36 36 33 32 28 22 22 16 14 12 12 9 6 6 6 6 9 9 10 12 14 14 16 20
nan nan nan nan nan nan nan nan nan nan nan nan nan nan nan nan nan nan nan nan nan nan nan nan nan nan nan nan nan nan nan nan nan nan nan nan nan nan nan nan nan nan nan nan nan nan nan nan nan nan nan nan nan nan nan nan nan nan nan nan nan 2 16 32 53 53 64 66 66 66 59 52 46 46 46 42 42 36 31 31 31 27 24 20 15 15 11 9 7 7 5 4 4 4 7 9 9 11 14 17 17 20 23
nan nan nan nan nan nan nan nan nan nan nan nan nan nan nan nan nan nan nan nan nan nan nan nan nan nan nan nan nan nan nan nan nan nan nan nan nan nan nan nan nan nan nan nan nan nan nan nan nan nan nan nan nan nan nan nan nan nan 1 10 10 20 35 51 62 62 68 66 67 67 59 49 41 41 33 27 27 24 19 19 19 12 9 8 7 7 4 3 2 2 2 3 6 6 9 12 12 17 22 22 22 23 23
nan nan nan nan nan nan nan nan nan nan nan nan nan nan nan nan nan nan nan nan nan nan nan nan nan nan nan nan nan nan nan nan nan nan nan nan nan nan nan nan nan nan nan nan nan nan nan nan nan nan nan nan nan nan nan nan nan 1 8 18 18 29 41 52 65 65 70 67 64 64 55 46 34 34 27 20 20 17 13 12 12 8 5 4 4 4 3 2 1 1 2 4 8 8 13 15 15 18 21 23 23 23 22
nan nan nan nan nan nan nan nan nan nan nan nan nan nan nan nan nan nan nan nan nan nan nan nan nan nan nan nan nan nan nan nan nan nan nan nan nan nan nan nan nan nan nan nan nan nan nan nan nan nan nan nan nan nan nan nan nan 2 12 21 21 29 42 58 68 68 68 64 59 59 49 35 26 26 19 13 13 11 8 9 9 7 4 3 3 3 3 2 1 1 2 7 11 11 15 17 17 18 20 22 22 21 23
nan nan nan nan nan nan nan nan nan nan nan nan nan nan nan nan nan nan nan nan nan nan nan nan nan nan nan nan nan nan nan nan nan nan nan nan nan nan nan nan nan nan nan nan nan nan nan nan nan nan nan nan nan nan nan nan nan 2 8 18 18 27 41 53 60 60 62 57 50 50 38 26 17 17 12 8 8 6 5 7 7 7 5 2 3 3 3 2 2 2 5 11 13 13 15 17 17 20 20 20 20 22 23
nan nan nan nan nan nan nan nan nan nan nan nan nan nan nan nan nan nan nan nan nan nan nan nan nan nan nan nan nan nan nan nan nan nan nan nan nan nan nan nan nan nan nan nan nan nan nan nan nan nan nan nan nan nan nan nan nan 0 2 7 7 16 27 36 45 45 50 44 38 38 28 16 12 12 6 4 4 2 2 6 6 6 5 3 3 3 3 1 4 4 8 14 15 15 17 17 17 20 20 20 20 23 26
nan nan nan nan nan nan nan nan nan nan nan nan nan nan nan nan nan nan nan nan nan nan nan nan nan nan nan nan nan nan nan nan nan nan nan nan nan nan nan nan nan nan nan nan nan nan nan nan nan nan nan nan nan nan nan nan nan nan nan nan nan 1 5 15 26 26 33 34 28 28 19 11 6 6 3 1 1 1 1 3 3 4 5 3 4 4 2 2 6 6 12 16 16 16 17 18 18 19 20 20 20 24 28
nan nan nan nan nan nan nan nan nan nan nan nan nan nan nan nan nan nan nan nan nan nan nan nan nan nan nan nan nan nan nan nan nan nan nan nan nan nan nan nan nan nan nan nan nan nan nan nan nan nan nan nan nan nan nan nan nan nan nan nan nan nan nan 1 8 8 19 20 18 18 11 5 3 3 0 0 0 0 0 2 2 4 5 4 4 4 1 3 8 8 14 17 17 17 17 17 17 17 19 22 22 26 30
nan nan nan nan nan nan nan nan nan nan nan nan nan nan nan nan nan nan nan nan nan nan nan nan nan nan nan nan nan nan nan nan nan nan nan nan nan nan nan nan nan nan nan nan nan nan nan nan nan nan nan nan nan nan nan nan nan nan nan nan nan nan nan nan nan nan 6 9 9 9 6 2 0 0 nan nan nan nan 0 1 1 4 6 6 4 4 1 4 12 12 16 17 17 17 17 17 17 19 19 23 23 28 32
nan nan nan nan nan nan nan nan nan nan nan nan nan nan nan nan nan nan nan nan nan nan nan nan nan nan nan nan nan nan nan nan nan nan nan nan nan nan nan nan nan nan nan nan nan nan nan nan nan nan nan nan nan nan nan nan nan nan nan nan nan nan nan nan nan nan nan 3 3 3 1 0 nan nan nan nan nan nan nan 0 0 3 6 6 5 5 1 6 13 13 19 18 17 17 15 16 16 18 21 25 25 30 35
nan nan nan nan nan nan nan nan nan nan nan nan nan nan nan nan nan nan nan nan nan nan nan nan nan nan nan nan nan nan nan nan nan nan nan nan nan nan nan nan nan nan nan nan nan nan nan nan nan nan nan nan nan nan nan nan nan nan nan nan nan nan nan nan nan nan nan nan 0 0 nan nan nan nan nan nan nan nan nan 0 0 3 5 6 5 5 2 6 14 14 20 19 17 17 16 16 16 18 22 28 28 32 37
nan nan nan nan nan nan nan nan nan nan nan nan nan nan nan nan nan nan nan nan nan nan nan nan nan nan nan nan nan nan nan nan nan nan nan nan nan nan nan nan nan nan nan nan nan nan nan nan nan nan nan nan nan nan nan nan nan nan nan nan nan nan nan nan nan nan nan nan nan nan nan nan nan nan nan nan nan nan nan nan nan 2 4 6 5 5 2 6 14 14 18 20 16 16 15 16 16 19 25 30 30 34 39
nan nan nan nan nan nan nan nan nan nan nan nan nan nan nan nan nan nan nan nan nan nan nan nan nan nan nan nan nan nan nan nan nan nan nan nan nan nan nan nan nan nan nan nan nan nan nan nan nan nan nan nan nan nan nan nan nan nan nan nan nan nan nan nan nan nan nan nan nan nan nan nan nan nan nan nan nan nan nan nan nan 1 4 6 5 5 3 5 13 13 20 21 17 17 14 16 16 20 27 31 31 36 37
nan nan nan nan nan nan nan nan nan nan nan nan nan nan nan nan nan nan nan nan nan nan nan nan nan nan nan nan nan nan nan nan nan nan nan nan nan nan nan nan nan nan nan nan nan nan nan nan nan nan nan nan nan nan nan nan nan nan nan nan nan nan nan nan nan nan nan nan nan nan nan nan nan nan nan nan nan nan nan nan nan 0 2 8 6 6 3 5 13 13 20 21 17 17 15 15 15 23 27 30 30 35 38
nan nan nan nan nan nan nan nan nan nan nan nan nan nan nan nan nan nan nan nan nan nan nan nan nan nan nan nan nan nan nan nan nan nan nan nan nan nan nan nan nan nan nan nan nan nan nan nan nan nan nan nan nan nan nan nan nan nan nan nan nan nan nan nan nan nan nan nan nan nan nan nan nan nan nan nan nan nan nan nan nan nan 0 6 6 6 2 4 12 12 19 23 19 19 17 17 17 22 26 29 29 33 38
nan nan nan nan nan nan nan nan nan nan nan nan nan nan nan nan nan nan nan nan nan nan nan nan nan nan nan nan nan nan nan nan nan nan nan nan nan nan nan nan nan nan nan nan nan nan nan nan nan nan nan nan nan nan nan nan nan nan nan nan nan nan nan nan nan nan nan nan nan nan nan nan nan nan nan nan nan nan nan nan nan nan nan 3 7 7 1 4 9 9 20 26 22 22 19 18 18 22 24 28 28 31 36
nan nan nan nan nan nan nan nan nan nan nan nan nan nan nan nan nan nan nan nan nan nan nan nan nan nan nan nan nan nan nan nan nan nan nan nan nan nan nan nan nan nan nan nan nan nan nan nan nan nan nan nan nan nan nan nan nan nan nan nan nan nan nan nan nan nan nan nan nan nan nan nan nan nan nan nan nan nan nan nan nan nan nan 0 5 5 1 2 7 7 22 29 24 24 19 18 18 22 24 27 27 33 35
nan nan nan nan nan nan nan nan nan nan nan nan nan nan nan nan nan nan nan nan nan nan nan nan nan nan nan nan nan nan nan nan nan nan nan nan nan nan nan nan nan nan nan nan nan nan nan nan nan nan nan nan nan nan nan nan nan nan nan nan nan nan nan nan nan nan nan nan nan nan nan nan nan nan nan nan nan nan nan nan nan nan nan nan 3 3 3 2 7 7 19 29 27 27 19 17 17 19 23 27 27 31 35
nan nan nan nan nan nan nan nan nan nan nan nan nan nan nan nan nan nan nan nan nan nan nan nan nan nan nan nan nan nan nan nan nan nan nan nan nan nan nan nan nan nan nan nan nan nan nan nan nan nan nan nan nan nan nan nan nan nan nan nan nan nan nan nan nan nan nan nan nan nan nan nan nan nan nan nan nan nan nan nan nan nan nan nan 1 1 3 3 6 6 18 29 27 27 19 17 17 18 22 27 27 32 37
nan nan nan nan nan nan nan nan nan nan nan nan nan nan nan nan nan nan nan nan nan nan nan nan nan nan nan nan nan nan nan nan nan nan nan nan nan nan nan nan nan nan nan nan nan nan nan nan nan nan nan nan nan nan nan nan nan nan nan nan nan nan nan nan nan nan nan nan nan nan nan nan nan nan nan nan nan nan nan nan nan nan nan nan 0 0 2 3 7 7 16 26 29 29 22 17 17 18 24 29 29 34 39
nan nan nan nan nan nan nan nan nan nan nan nan nan nan nan nan nan nan nan nan nan nan nan nan nan nan nan nan nan nan nan nan nan nan nan nan nan nan nan nan nan nan nan nan nan nan nan nan nan nan nan nan nan nan nan nan nan nan nan nan nan nan nan nan nan nan nan nan nan nan nan nan nan nan nan nan nan nan nan nan nan nan nan nan nan nan 1 1 5 5 12 24 28 28 24 18 18 18 24 31 31 37 42
nan nan nan nan nan nan nan nan nan nan nan nan nan nan nan nan nan nan nan nan nan nan nan nan nan nan nan nan nan nan nan nan nan nan nan nan nan nan nan nan nan nan nan nan nan nan nan nan nan nan nan nan nan nan nan nan nan nan nan nan nan nan nan nan nan nan nan nan nan nan nan nan nan nan nan nan nan nan nan nan nan nan nan nan nan nan nan 0 1 1 9 21 25 25 22 19 19 18 24 31 31 39 47
nan nan nan nan nan nan nan nan nan nan nan nan nan nan nan nan nan nan nan nan nan nan nan nan nan nan nan nan nan nan nan nan nan nan nan nan nan nan nan nan nan nan nan nan nan nan nan nan nan nan nan nan nan nan nan nan nan nan nan nan nan nan nan nan nan nan nan nan nan nan nan nan nan nan nan nan nan nan nan nan nan nan nan nan nan nan nan nan 0 0 5 16 24 24 22 19 19 19 25 33 33 41 49
nan nan nan nan nan nan nan nan nan nan nan nan nan nan nan nan nan nan nan nan nan nan nan nan nan nan nan nan nan nan nan nan nan nan nan nan nan nan nan nan nan nan nan nan nan nan nan nan nan nan nan nan nan nan nan nan nan nan nan nan nan nan nan nan nan nan nan nan nan nan nan nan nan nan nan nan nan nan nan nan nan nan nan nan nan nan nan nan nan nan 1 12 20 20 20 19 19 19 26 33 33 41 50
nan nan nan nan nan nan nan nan nan nan nan nan nan nan nan nan nan nan nan nan nan nan nan nan nan nan nan nan nan nan nan nan nan nan nan nan nan nan nan nan nan nan nan nan nan nan nan nan nan nan nan nan nan nan nan nan nan nan nan nan nan nan nan nan nan nan nan nan nan nan nan nan nan nan nan nan nan nan nan nan nan nan nan nan nan nan nan nan nan nan nan 5 13 13 15 14 14 16 24 34 34 44 54
nan nan nan nan nan nan nan nan nan nan nan nan nan nan nan nan nan nan nan nan nan nan nan nan nan nan nan nan nan nan nan nan nan nan nan nan nan nan nan nan nan nan nan nan nan nan nan nan nan nan nan nan nan nan nan nan nan nan nan nan nan nan nan nan nan nan nan nan nan nan nan nan nan nan nan nan nan nan nan nan nan nan nan nan nan nan nan nan nan nan nan 2 9 9 12 11 11 13 23 35 35 44 55
nan nan nan nan nan nan nan nan nan nan nan nan nan nan nan nan nan nan nan nan nan nan nan nan nan nan nan nan nan nan nan nan nan nan nan nan nan nan nan nan nan nan nan nan nan nan nan nan nan nan nan nan nan nan nan nan nan nan nan nan nan nan nan nan nan nan nan nan nan nan nan nan nan nan nan nan nan nan nan nan nan nan nan nan nan nan nan nan nan nan nan 0 3 3 7 8 8 11 20 34 34 44 55
nan nan nan nan nan nan nan nan nan nan nan nan nan nan nan nan nan nan nan nan nan nan nan nan nan nan nan nan nan nan nan nan nan nan nan nan nan nan nan nan nan nan nan nan nan nan nan nan nan nan nan nan nan nan nan nan nan nan nan nan nan nan nan nan nan nan nan nan nan nan nan nan nan nan nan nan nan nan nan nan nan nan nan nan nan nan nan nan nan nan nan nan 0 0 1 4 4 9 18 32 32 45 55
nan nan nan nan nan nan nan nan nan nan nan nan nan nan nan nan nan nan nan nan nan nan nan nan nan nan nan nan nan nan nan nan nan nan nan nan nan nan nan nan nan nan nan nan nan nan nan nan nan nan nan nan nan nan nan nan nan nan nan nan nan nan nan nan nan nan nan nan nan nan nan nan nan nan nan nan nan nan nan nan nan nan nan nan nan nan nan nan nan nan nan nan nan nan nan 0 0 6 14 28 28 43 55
nan nan nan nan nan nan nan nan nan nan nan nan nan nan nan nan nan nan nan nan nan nan nan nan nan nan nan nan nan nan nan nan nan nan nan nan nan nan nan nan nan nan nan nan nan nan nan nan nan nan nan nan nan nan nan nan nan nan nan nan nan nan nan nan nan nan nan nan nan nan nan nan nan nan nan nan nan nan nan nan nan nan nan nan nan nan nan nan nan nan nan nan nan nan nan nan nan 2 12 26 26 43 56
nan nan nan nan nan nan nan nan nan nan nan nan nan nan nan nan nan nan nan nan nan nan nan nan nan nan nan nan nan nan nan nan nan nan nan nan nan nan nan nan nan nan nan nan nan nan nan nan nan nan nan nan nan nan nan nan nan nan nan nan nan nan nan nan nan nan nan nan nan nan nan nan nan nan nan nan nan nan nan nan nan nan nan nan nan nan nan nan nan nan nan nan nan nan nan nan nan 0 8 24 24 41 56
nan nan nan nan nan nan nan nan nan nan nan nan nan nan nan nan nan nan nan nan nan nan nan nan nan nan nan nan nan nan nan nan nan nan nan nan nan nan nan nan nan nan nan nan nan nan nan nan nan nan nan nan nan nan nan nan nan nan nan nan nan nan nan nan nan nan nan nan nan nan nan nan nan nan nan nan nan nan nan nan nan nan nan nan nan nan nan nan nan nan nan nan nan nan nan nan nan nan 6 22 22 39 57
nan nan nan nan nan nan nan nan nan nan nan nan nan nan nan nan nan nan nan nan nan nan nan nan nan nan nan nan nan nan nan nan nan nan nan nan nan nan nan nan nan nan nan nan nan nan nan nan nan nan nan nan nan nan nan nan nan nan nan nan nan nan nan nan nan nan nan nan nan nan nan nan nan nan nan nan nan nan nan nan nan nan nan nan nan nan nan nan nan nan nan nan nan nan nan nan nan nan 5 22 22 42 58
nan nan nan nan nan nan nan nan nan nan nan nan nan nan nan nan nan nan nan nan nan nan nan nan nan nan nan nan nan nan nan nan nan nan nan nan nan nan nan nan nan nan nan nan nan nan nan nan nan nan nan nan nan nan nan nan nan nan nan nan nan nan nan nan nan nan nan nan nan nan nan nan nan nan nan nan nan nan nan nan nan nan nan nan nan nan nan nan nan nan nan nan nan nan nan nan nan nan 5 23 23 42 59
nan nan nan nan nan nan nan nan nan nan nan nan nan nan nan nan nan nan nan nan nan nan nan nan nan nan nan nan nan nan nan nan nan nan nan nan nan nan nan nan nan nan nan nan nan nan nan nan nan nan nan nan nan nan nan nan nan nan nan nan nan nan nan nan nan nan nan nan nan nan nan nan nan nan nan nan nan nan nan nan nan nan nan nan nan nan nan nan nan nan nan nan nan nan nan nan nan nan 5 23 23 43 61
nan nan nan nan nan nan nan nan nan nan nan nan nan nan nan nan nan nan nan nan nan nan nan nan nan nan nan nan nan nan nan nan nan nan nan nan nan nan nan nan nan nan nan nan nan nan nan nan nan nan nan nan nan nan nan nan nan nan nan nan nan nan nan nan nan nan nan nan nan nan nan nan nan nan nan nan nan nan nan nan nan nan nan nan nan nan nan nan nan nan nan nan nan nan nan nan nan nan 4 23 23 43 61
nan nan nan nan nan nan nan nan nan nan nan nan nan nan nan nan nan nan nan nan nan nan nan nan nan nan nan nan nan nan nan nan 0 0 nan nan nan nan nan nan nan nan nan nan nan nan nan nan nan nan nan nan nan nan nan nan nan nan nan nan nan nan nan nan nan nan nan nan nan nan nan nan nan nan nan nan nan nan nan nan nan nan nan nan nan nan nan nan nan nan nan nan nan nan nan nan nan nan 5 21 21 40 57
nan nan nan nan nan nan nan nan nan nan nan nan nan nan nan nan nan nan nan nan nan nan nan nan nan nan nan nan nan nan nan nan nan nan 0 nan nan nan nan nan nan nan nan nan nan nan nan nan nan nan nan nan nan nan nan nan nan nan nan nan nan nan nan nan nan nan nan nan nan nan nan nan nan nan nan nan nan nan nan nan nan nan nan nan nan nan nan nan nan nan nan nan nan nan nan nan nan nan 9 24 24 40 55
nan nan nan nan nan nan nan nan nan nan nan nan nan nan nan nan nan nan nan nan nan nan nan nan nan nan nan nan nan nan nan nan 0 0 0 0 0 0 nan nan nan nan nan nan nan nan nan nan nan nan nan nan nan nan nan nan nan nan nan nan nan nan nan nan nan nan nan nan nan nan nan nan nan nan nan nan nan nan nan nan nan nan nan nan nan nan nan nan nan nan nan nan nan nan nan nan nan 0 12 27 27 41 56
nan nan nan nan nan nan nan nan nan nan nan nan nan nan nan nan nan nan nan nan nan nan nan nan nan nan nan nan nan nan nan nan 0 0 nan nan nan 0 nan nan nan nan nan nan nan nan nan nan nan nan nan nan nan nan nan nan nan nan nan nan nan nan nan nan nan nan nan nan nan nan nan nan nan nan nan nan nan nan nan nan nan nan nan nan nan nan nan nan nan nan nan nan nan nan nan nan nan 1 13 31 31 46 58
nan nan nan nan nan nan nan nan nan nan nan nan nan nan nan nan nan nan nan nan nan nan nan nan nan nan nan nan nan nan nan nan nan nan nan nan nan nan nan nan nan nan nan nan nan nan nan nan nan nan nan nan nan nan nan nan nan nan nan nan nan nan nan nan nan nan nan nan nan nan nan nan nan nan nan nan nan nan nan nan nan nan nan nan nan nan nan nan nan nan nan nan nan nan nan nan nan 2 15 33 33 47 58
nan nan nan nan nan nan nan nan nan nan nan nan nan nan nan nan nan nan nan nan nan nan nan nan nan nan nan nan nan nan nan nan nan nan nan nan nan nan nan nan nan nan 0 nan nan nan nan nan nan nan nan nan nan nan nan nan nan nan nan nan nan nan nan nan nan nan nan nan nan nan nan nan nan nan nan nan nan nan nan nan nan nan nan nan nan nan nan nan nan nan nan nan nan nan nan nan nan 3 17 35 35 48 57
nan nan nan nan nan nan nan nan nan nan nan nan nan nan nan nan nan nan nan nan nan nan nan nan nan nan nan nan nan nan nan nan nan nan nan nan nan nan nan 0 0 0 0 0 0 0 nan nan nan nan nan nan nan nan nan nan nan nan nan nan nan nan nan nan nan nan nan nan nan nan nan nan nan nan nan nan nan nan nan nan nan nan nan nan nan nan nan nan nan nan nan nan nan nan nan nan nan 4 18 35 35 45 54